Flag Weather past 2 weeks in Regina, Saskatchewan, Canada

Now
10 °F

Overcast.


Feels Like: 4 °F
Forecast: 4 / 24 °F
Wind: 3 mph from Northwest

Location: Regina Weather Station

Current Time: Nov 23, 2014 at 11:34:12 PM

Latest Report: Nov 23, 2014 at 11:00 PM


Visibility: 15 mi

Pressure: 29.97 "Hg

Humidity: 85%

Dew point: 7 °F

Location of ReginaLocation

Historic Weather in Regina — Graph

°F

Regina temperature yesterday

Maximum temperature yesterday: 36 °F (at 3:00 PM)
Minimum temperature yesterday: 25 °F (at 3:00 AM)
Average temperature yesterday: 32 °F

Past Weeks' High & Low Weather Summary

 TemperatureHumidityPressure
High45 °F (Nov 21, 3:00 PM)100% (Nov 21, 10:00 PM)30.84 "Hg (Nov 21, 10:00 PM)
Low-8 °F (Nov 14, 7:00 AM)53% (Nov 9, 12:00 AM)29.17 "Hg (Nov 22, 7:00 PM)
Average14 °F81%30.15 "Hg
* Reported Nov 8 10:00 PM — Nov 23 10:00 PM, Regina, Weather by CustomWeather, © 2014

Note: Actual official high and low records may vary slightly from our data, if they occured in-between our weather recording intervals... More about our weather records

Advertising

Regina weather history for previous 24 hours

 ConditionsComfort  
Time TempWeatherWind HumidityBarometerVisibility
10:00 PM
Nov 23
10 °FOvercast.3 mph85%29.96 "Hg15 mi
9:00 PM10 °FLight snow. Overcast.6 mph85%29.96 "Hg15 mi
8:00 PM9 °FLight snow. Passing clouds.8 mph92%29.96 "Hg15 mi
7:00 PM10 °FLight snow. Passing clouds.8 mph85%29.97 "Hg15 mi
6:00 PM12 °FPassing clouds.12 mph85%29.96 "Hg15 mi
5:00 PM12 °FBroken clouds.10 mph85%29.96 "Hg15 mi
4:00 PM14 °FPartly sunny.14 mph79%29.93 "Hg15 mi
3:00 PM14 °FPartly sunny.17 mph85%29.90 "Hg15 mi
2:00 PM14 °FLow level haze.18 mph85%29.88 "Hg15 mi
1:00 PM12 °FScattered clouds.17 mph85%29.88 "Hg15 mi
12:00 PM12 °FBroken clouds.17 mph79%29.87 "Hg8 mi
11:00 AM12 °FPartly sunny.17 mph79%29.85 "Hg8 mi
10:48 AM10 °FPartly sunny.21 mph85%29.84 "Hg5 mi
10:00 AM10 °FSnow flurries. Ice fog.16 mph85%29.82 "Hg2 mi
9:00 AM10 °FSnow flurries. Ice fog.21 mph92%29.79 "Hg2 mi
8:00 AM12 °FSnow flurries. Mostly cloudy.22 mph85%29.74 "Hg6 mi
7:00 AM12 °FSnow flurries. Mostly cloudy.26 mph85%29.69 "Hg12 mi
6:00 AM16 °FSnow flurries. Overcast.22 mph86%29.63 "Hg4 mi
5:00 AM18 °FSnow flurries. Overcast.22 mph86%29.55 "Hg15 mi
4:00 AM18 °FSnow flurries. Overcast.22 mph93%29.50 "Hg15 mi
3:00 AM21 °FSnow flurries. Low clouds.21 mph93%29.40 "Hg3 mi
2:00 AM30 °FLight snow. Low clouds.17 mph100%29.28 "Hg6 mi
1:53 AM32 °FLight snow. Low clouds.17 mph100%29.26 "Hg4 mi
1:00 AM32 °FLight snow. Low clouds.10 mph93%29.24 "Hg10 mi
12:00 AM32 °FLight snow. Low clouds.17 mph100%29.21 "Hg12 mi
11:48 PM
Nov 22
32 °FLight snow. Low clouds.10 mph100%29.21 "Hg12 mi
11:00 PM34 °FSprinkles. Low clouds.14 mph100%29.20 "Hg15 mi
Weather by CustomWeather, © 2014

See weather overviewHow to use our weather pages